Location: Doverdale
(52.2833°N, 2.2000°W)
Time: 02:49:12
(UTC+00:00)

Cosmos 1980 Rocket - Pass Details

Date: 04 March 2021
Orbit: 828 x 851 km, 71.0° (Epoch: 15 April)

Event Time Altitude Azimuth Distance (km) Brightness Sun altitude
Rises 18:37:36 0° 232° (SW) 3,393 6.3 -7.5°
Reaches altitude 10° 18:40:09 10° 238° (WSW) 2,465 5.6 -7.9°
Maximum altitude 18:45:34 45° 311° (NW) 1,146 3.4 -8.7°
Drops below altitude 10° 18:51:03 10° 24° (NNE) 2,489 4.4 -9.5°
Sets 18:53:38 0° 31° (NNE) 3,429 5.1 -9.9°
